Weather in Bunakove

Ukraine / Kharkiv Region     49°14′19″N   36°31′17″E
temp.,
°C
wind,
m/s
gust,
m/s
humid.,
%
clouds,
%
prec.,
mm/h
press.,
hPa
HPBL,
m
21 april, wed
wed2100:00+9wsw6895100 0.0 1001464
03:00+8wnw71190100 0.1 1005913
06:00+8wsw3794100 0.1 1008464
09:00+9wsw6879100 0.3 1011814
12:00+13wsw795596 0.1 10131835
15:00+12wsw6857100 0.2 10141413
18:00+13sw595597 0.0 10151766
21:00+9sw346984 0.0 101760
22 april, thu
thu2200:00+7sw358167 0.1 101889
03:00+8sw2477100 0.2 101894
06:00+7sw22855 0.0 101931
09:00+12sw34641 0.0 1021546
12:00+16sw45475 0.0 10201796
15:00+17sw4439100 0.0 10202442
18:00+14ssw2353100 0.0 102063
21:00+12s336476 0.0 102138
23 april, fri
fri2300:00+10ssw347419 0.0 102049
03:00+10ssw367998 0.0 1020143
06:00+8ssw379169 0.0 1020155
09:00+13ssw68621 0.0 1020673
12:00+16ssw784819 0.1 10181735
15:00+16ssw7847100 0.3 10171952
18:00+16ssw584899 0.0 1015607
21:00+13ssw61360100 0.3 1015515
24 april, sat
sat2400:00+11ssw71473100 0.5 1014565
03:00+10sw71276100 0.6 1012700
06:00+5wnw61095100 1.8 1014661
09:00+6w6871100 1.8 10151065
12:00+11w710435 0.0 10152057
15:00+10w81048100 0.0 10151805
18:00+9w7115718 0.4 10151976
21:00+6w611610 0.4 1017564
25 april, sun
sun2500:00+4wsw5117636 0.0 1017380
03:00+3wsw5108452 0.0 1018332
06:00+2wsw49835 0.0 1018254
09:00+7wsw68585 0.0 10181143
12:00+10w6842100 0.0 10182351
15:00+11w7842100 0.0 10172370
18:00+10wnw68476 0.0 10172189
21:00+6wsw22625 0.0 101821